Terminal Aerodrome Forecast
Issued by NWS

Home | Current Version | Previous Version | Text Only | Print | Product List | Glossary On
Versions: 1 2 3 4 5 6 7 8 9 10 11 12 13 14
000
FTUS46 KEKA 262328
TAFUKI
TAF
KUKI 262328Z 2700/2724 35008KT P6SM SKC
     FM271100 17004KT P6SM SCT012
     FM271700 VRB03KT P6SM SKC=

USA.gov is the U.S. government's official web portal to all federal, state and local government web resources and services.